Home   Weather   Jan Mayen   Past weeks

Flag for Norway Past Weather in Jan Mayen, Jan Mayen, Norway — Yesterday and Last 2 Weeks

Now
36 °F

Chilly.


Feels Like: 29 °F
Forecast: 26 / 34 °F
Wind: 12 mph from Northeast

Location: Jan Mayen

Current Time: Jan 22, 2017 at 7:22:02 am

Latest Report: Jan 22, 2017 at 6:00 am


Visibility: N/A

Pressure: 29.54 "Hg

Humidity: 74%

Dew Point: 29 °F

Location of Jan MayenLocation

Past Weather in Jan Mayen — Graph

°F

Jan Mayen Temperature Yesterday

Maximum temperature yesterday: 35 °F (at 10:00 pm)
Minimum temperature yesterday: 25 °F (at 5:00 am)
Average temperature yesterday: 30 °F

High & Low Weather Summary for the Past Weeks

 TemperatureHumidityPressure
High38 °F (Jan 16, 4:00 am)99% (Jan 7, 2:00 pm)30.08 "Hg (Jan 7, 2:00 pm)
Low10 °F (Jan 19, 6:00 am)41% (Jan 19, 7:00 pm)29.09 "Hg (Jan 11, 12:00 am)
Average24 °F73%29.56 "Hg
* Reported Jan 7 6:00 am — Jan 22 6:00 am, Jan Mayen, Weather by CustomWeather, © 2017

Note: Actual official high and low records may vary slightly from our data, if they occured in-between our weather recording intervals... More about our weather records

Advertising

Jan Mayen Weather History for the Previous 24 Hours

Scroll right to see more
 ConditionsComfort  
Time TempWeatherWind HumidityBarometerVisibility
6:00 am
Sun, Jan 22
36 °FChilly.12 mph74%29.54 "HgN/A
5:00 am38 °FChilly.15 mph69%29.53 "HgN/A
4:00 am38 °FChilly.17 mph69%29.54 "HgN/A
3:00 am36 °FChilly.13 mph77%29.56 "HgN/A
2:00 am36 °FChilly.12 mph77%29.59 "HgN/A
1:00 am36 °FLight rain. Overcast.13 mph83%29.62 "Hg6 mi
12:00 am35 °FChilly.12 mph86%29.63 "HgN/A
11:00 pm
Sat, Jan 21
35 °FChilly.13 mph90%29.65 "HgN/A
10:00 pm35 °FChilly.14 mph85%29.67 "HgN/A
9:00 pm35 °FChilly.13 mph83%29.68 "HgN/A
8:00 pm35 °FChilly.14 mph83%29.71 "HgN/A
7:00 pm35 °FOvercast.13 mph81%29.73 "Hg12 mi
6:00 pm35 °FChilly.12 mph76%29.74 "HgN/A
5:00 pm35 °FChilly.12 mph76%29.76 "HgN/A
4:00 pm35 °FOvercast.12 mph71%29.78 "Hg12 mi
3:00 pm34 °FChilly.10 mph71%29.79 "HgN/A
2:00 pm33 °FChilly.12 mph75%29.81 "HgN/A
1:00 pm31 °FOvercast.13 mph81%29.83 "Hg19 mi
12:00 pm31 °FChilly.12 mph83%29.85 "HgN/A
11:00 am29 °FChilly.10 mph85%29.88 "HgN/A
10:00 am28 °FOvercast.13 mph90%29.90 "Hg6 mi
9:00 am27 °FChilly.13 mph98%29.90 "HgN/A
8:00 am26 °FChilly.15 mph96%29.90 "HgN/A
7:00 am26 °FLight snow. Overcast.13 mph96%29.94 "Hg3 mi
Weather by CustomWeather, © 2017

See weather overviewHow to use our weather pages